Time,TemperatureF,DewpointF,PressureIn,WindDirection,WindDirectionDegrees,WindSpeedMPH,WindSpeedGustMPH,Humidity,HourlyPrecipIn,Conditions,Clouds,dailyrainin,SolarRadiationWatts/m^2,SoftwareType,DateUTC
2014-08-20 00:22:00,47.0,47.0,-100.00,SE,137,9.0,11.0,99,0.00,,,-99.99,0.000000,,2014-08-20 06:22:00,
2014-08-20 00:32:00,47.0,47.0,-100.00,SE,137,9.0,11.0,99,0.00,,,-99.99,0.000000,,2014-08-20 06:32:00,
2014-08-20 00:42:00,47.0,47.0,-100.00,SE,137,9.0,11.0,99,0.00,,,-99.99,0.000000,,2014-08-20 06:42:00,
2014-08-20 00:52:00,47.0,47.0,-100.00,SE,137,9.0,11.0,99,0.00,,,-99.99,0.000000,,2014-08-20 06:52:00,
2014-08-20 01:22:00,47.0,47.0,-100.00,SSE,161,7.0,11.0,99,0.01,,,0.52,1.000000,,2014-08-20 07:22:00,
2014-08-20 01:32:00,47.0,47.0,-100.00,SSE,161,7.0,11.0,99,0.01,,,0.52,1.000000,,2014-08-20 07:32:00,
2014-08-20 01:42:00,47.0,47.0,-100.00,SSE,161,7.0,11.0,99,0.01,,,0.52,1.000000,,2014-08-20 07:42:00,
2014-08-20 01:53:00,47.0,47.0,-100.00,SSE,161,7.0,11.0,99,0.01,,,0.52,1.000000,,2014-08-20 07:53:00,
2014-08-20 02:42:00,48.0,47.0,-100.00,South,181,9.0,15.0,97,0.01,,,0.53,0.000000,,2014-08-20 08:42:00,
2014-08-20 02:52:00,48.0,47.0,-100.00,South,181,9.0,15.0,97,0.01,,,0.53,0.000000,,2014-08-20 08:52:00,
2014-08-20 03:32:00,48.0,46.0,-100.00,SSW,206,5.0,13.0,94,0.00,,,0.53,0.000000,,2014-08-20 09:32:00,
2014-08-20 03:52:00,48.0,46.0,-100.00,SSW,206,5.0,13.0,94,0.00,,,0.53,0.000000,,2014-08-20 09:52:00,
2014-08-20 04:22:00,48.0,46.0,-100.00,SSW,195,4.0,9.0,94,0.00,,,0.53,0.000000,,2014-08-20 10:22:00,
2014-08-20 04:32:00,48.0,46.0,-100.00,SSW,195,4.0,9.0,94,0.00,,,0.53,0.000000,,2014-08-20 10:32:00,
2014-08-20 04:42:00,48.0,46.0,-100.00,SSW,195,4.0,9.0,94,0.00,,,0.53,0.000000,,2014-08-20 10:42:00,
2014-08-20 04:53:00,48.0,46.0,-100.00,SSW,195,4.0,9.0,94,0.00,,,0.53,0.000000,,2014-08-20 10:53:00,
2014-08-20 05:22:00,48.0,47.0,-100.00,SSW,196,4.0,11.0,96,0.00,,,0.53,1.000000,,2014-08-20 11:22:00,
2014-08-20 05:32:00,48.0,47.0,-100.00,SSW,196,4.0,11.0,96,0.00,,,0.53,1.000000,,2014-08-20 11:32:00,
2014-08-20 05:52:00,48.0,47.0,-100.00,SSW,196,4.0,11.0,96,0.00,,,0.53,1.000000,,2014-08-20 11:52:00,
2014-08-20 06:22:00,47.0,45.0,-100.00,SW,232,8.0,19.0,93,0.00,,,0.53,0.000000,,2014-08-20 12:22:00,
2014-08-20 06:53:00,47.0,45.0,-100.00,SW,232,8.0,19.0,93,0.00,,,0.53,0.000000,,2014-08-20 12:53:00,
2014-08-20 07:42:00,47.0,46.0,-100.00,South,171,6.0,12.0,97,0.00,,,0.53,2.000000,,2014-08-20 13:42:00,
2014-08-20 07:52:00,47.0,46.0,-100.00,South,171,6.0,12.0,97,0.00,,,0.53,2.000000,,2014-08-20 13:52:00,
2014-08-20 08:22:00,48.0,47.0,-100.00,SSW,195,6.0,11.0,98,0.00,,,0.53,63.000000,,2014-08-20 14:22:00,
2014-08-20 08:43:00,48.0,47.0,-100.00,SSW,195,6.0,11.0,98,0.00,,,0.53,63.000000,,2014-08-20 14:43:00,
2014-08-20 08:53:00,48.0,47.0,-100.00,SSW,195,6.0,11.0,98,0.00,,,0.53,63.000000,,2014-08-20 14:53:00,
2014-08-20 09:22:00,49.0,48.0,-100.00,SSW,200,6.0,12.0,97,0.00,,,0.53,116.000000,,2014-08-20 15:22:00,
2014-08-20 09:33:00,49.0,48.0,-100.00,SSW,200,6.0,12.0,97,0.00,,,0.53,116.000000,,2014-08-20 15:33:00,
2014-08-20 09:54:00,49.0,48.0,-100.00,SSW,200,6.0,12.0,97,0.00,,,0.53,116.000000,,2014-08-20 15:54:00,
2014-08-20 10:23:00,51.0,48.0,-100.00,SSW,199,8.0,16.0,91,0.00,,,0.53,223.000000,,2014-08-20 16:23:00,
2014-08-20 10:43:00,51.0,48.0,-100.00,SSW,199,8.0,16.0,91,0.00,,,0.53,223.000000,,2014-08-20 16:43:00,
2014-08-20 11:33:00,53.0,47.0,-100.00,SW,227,9.0,14.0,79,0.00,,,0.53,403.000000,,2014-08-20 17:33:00,
2014-08-20 11:42:00,53.0,47.0,-100.00,SW,227,9.0,14.0,79,0.00,,,0.53,403.000000,,2014-08-20 17:42:00,
2014-08-20 12:22:00,56.0,50.0,-100.00,South,183,9.0,15.0,79,0.00,,,0.53,585.000000,,2014-08-20 18:22:00,
2014-08-20 12:42:00,56.0,50.0,-100.00,South,183,9.0,15.0,79,0.00,,,0.53,585.000000,,2014-08-20 18:42:00,
2014-08-20 13:32:00,58.0,49.0,-100.00,SSW,198,9.0,17.0,72,0.00,,,0.53,755.000000,,2014-08-20 19:32:00,
2014-08-20 13:42:00,58.0,49.0,-100.00,SSW,198,9.0,17.0,72,0.00,,,0.53,755.000000,,2014-08-20 19:42:00,
2014-08-20 14:23:00,59.0,45.0,-100.00,SSW,204,10.0,18.0,60,0.00,,,0.53,443.000000,,2014-08-20 20:23:00,
2014-08-20 14:42:00,59.0,45.0,-100.00,SSW,204,10.0,18.0,60,0.00,,,0.53,443.000000,,2014-08-20 20:42:00,
2014-08-20 14:52:00,59.0,45.0,-100.00,SSW,204,10.0,18.0,60,0.00,,,0.53,443.000000,,2014-08-20 20:52:00,
2014-08-20 15:22:00,58.0,44.0,-100.00,SSW,213,10.0,16.0,59,0.00,,,0.53,708.000000,,2014-08-20 21:22:00,
2014-08-20 15:43:00,58.0,44.0,-100.00,SSW,213,10.0,16.0,59,0.00,,,0.53,708.000000,,2014-08-20 21:43:00,
2014-08-20 15:54:00,58.0,44.0,-100.00,SSW,213,10.0,16.0,59,0.00,,,0.53,708.000000,,2014-08-20 21:54:00,
2014-08-20 16:23:00,59.0,43.0,-100.00,SSW,197,10.0,18.0,56,0.00,,,0.53,454.000000,,2014-08-20 22:23:00,
2014-08-20 16:33:00,59.0,43.0,-100.00,SSW,197,10.0,18.0,56,0.00,,,0.53,454.000000,,2014-08-20 22:33:00,
2014-08-20 16:42:00,59.0,43.0,-100.00,SSW,197,10.0,18.0,56,0.00,,,0.53,454.000000,,2014-08-20 22:42:00,
2014-08-20 16:53:00,59.0,43.0,-100.00,SSW,197,10.0,18.0,56,0.00,,,0.53,454.000000,,2014-08-20 22:53:00,
2014-08-20 17:33:00,55.0,47.0,-100.00,NNE,12,6.0,13.0,75,0.00,,,0.53,162.000000,,2014-08-20 23:33:00,
2014-08-20 17:53:00,55.0,47.0,-100.00,NNE,12,6.0,13.0,75,0.00,,,0.53,162.000000,,2014-08-20 23:53:00,
2014-08-20 18:32:00,57.0,47.0,-100.00,SSE,152,2.0,9.0,69,0.00,,,0.53,141.000000,,2014-08-21 00:32:00,
2014-08-20 18:42:00,57.0,47.0,-100.00,SSE,152,2.0,9.0,69,0.00,,,0.53,141.000000,,2014-08-21 00:42:00,
2014-08-20 19:22:00,59.0,41.0,-100.00,SSW,213,9.0,12.0,52,0.00,,,0.53,292.000000,,2014-08-21 01:22:00,
2014-08-20 19:32:00,59.0,41.0,-100.00,SSW,213,9.0,12.0,52,0.00,,,0.53,292.000000,,2014-08-21 01:32:00,
2014-08-20 19:42:00,59.0,41.0,-100.00,SSW,213,9.0,12.0,52,0.00,,,0.53,292.000000,,2014-08-21 01:42:00,
2014-08-20 19:52:00,59.0,41.0,-100.00,SSW,213,9.0,12.0,52,0.00,,,0.53,292.000000,,2014-08-21 01:52:00,
2014-08-20 20:22:00,54.0,39.0,-100.00,SW,221,9.0,18.0,56,0.00,,,0.50,49.000000,,2014-08-21 02:22:00,